User: anonymous   Login
Location: Unspecified
(0.0000°N, 0.0000°E)
Time: 03:41:52
(UTC+00:00)
Language:

PAKSAT 1R - Orbit

View from above orbital plane
View from above orbital plane
View from above satellite
View from above satellite

Ground track
Ground track

The orbit data is extracted from the following two-line orbital elements,

1 37779U 11042A   16267.98376043  .00000123  00000-0  00000+0 0  9998
2 37779   0.0293  96.2527 0001478 100.0685 199.0733  1.00271696 18654
Epoch (UTC): 23 September 2016 23:36:36
Eccentricity: 0.0001478
inclination: 0.0293°
perigee height: 35780 km
apogee height: 35792 km
right ascension of ascending node: 96.2527°
argument of perigee: 100.0685°
revolutions per day: 1.00271696
mean anomaly at epoch: 199.0733°
orbit number at epoch: 1865

The dashed part of the orbit path shows where the satellite is in the earth's shadow,  

DLR